Temperature
20 20 20 19 19 19 19 19 18 18 18 18 18 18 17 17 17 17 16 16 16 16 16 16 16 16 16 16 16 16 16 16 16 16 16 15 15 15 15 15 15 15 15
20 20 20 20 19 19 19 19 19 18 18 18 17 17 17 17 17 16 16 16 16 16 16 16 15 15 15 16 16 16 16 15 16 15 15 15 15 15 15 15 15 15 15
20 20 20 19 19 19 19 19 18 18 18 18 17 17 17 17 16 16 16 16 16 15 15 15 15 15 15 15 15 15 15 15 15 15 15 15 15 15 15 15 15 15 14
20 20 20 19 19 19 19 19 18 18 18 18 18 17 17 17 16 16 16 16 16 15 15 15 15 15 15 15 15 15 15 15 15 15 15 15 15 15 14 14 14 14 14
20 20 19 19 19 19 19 19 18 18 17 18 17 17 17 17 16 16 16 16 15 15 15 15 15 15 15 15 15 15 15 15 15 15 15 15 15 14 14 14 14 14 14
20 19 19 19 19 19 18 18 18 18 17 17 17 17 16 16 16 16 16 15 15 15 15 15 15 15 15 15 15 15 15 14 15 15 15 15 14 14 14 14 14 14 14
20 19 19 19 19 18 18 18 18 18 17 17 17 17 16 16 16 16 16 16 15 15 15 15 15 15 15 14 15 15 15 15 15 14 14 14 14 14 14 14 14 14 14
19 19 19 19 18 18 18 18 17 17 17 17 17 16 16 16 16 16 16 16 15 15 15 15 15 14 14 14 14 14 14 14 14 14 14 14 14 14 14 14 13 13 13
19 19 18 18 18 18 18 17 17 17 17 16 16 16 16 16 16 16 16 15 15 15 15 14 14 14 14 14 14 14 14 14 14 14 14 14 14 14 13 13 13 13 14
18 18 18 18 18 17 17 17 17 17 16 16 16 16 16 16 16 16 15 15 14 14 14 14 14 14 14 14 14 14 14 14 13 14 14 14 14 14 13 13 13 13 13
18 17 17 17 17 17 17 17 16 16 16 16 16 15 15 15 15 15 15 15 14 14 14 14 14 14 14 14 14 14 14 13 13 13 13 13 13 13 13 13 13 13 13
17 17 17 17 16 16 16 16 16 16 15 15 15 15 15 15 15 15 15 15 14 14 14 14 14 14 14 14 14 14 14 13 13 13 13 13 13 13 13 12 12 12 12
16 16 16 16 16 16 16 16 15 15 15 15 15 15 15 14 15 15 14 14 14 14 14 14 14 14 13 13 13 13 13 13 13 13 13 13 12 12 12 12 12 12 12
16 16 15 15 15 15 15 15 15 15 15 15 15 15 14 14 14 14 14 14 14 14 13 13 13 13 13 13 13 13 12 12 12 12 12 12 12 12 12 12 12 12 12
15 15 15 15 15 15 15 14 14 14 14 14 14 14 14 14 14 14 14 13 13 13 13 13 13 13 13 13 12 12 12 12 12 12 12 12 12 12 12 11 11 11 11
15 15 15 15 14 14 14 14 14 14 14 14 13 13 13 13 13 13 13 13 13 13 13 13 12 12 12 12 12 12 12 12 11 11 11 11 11 11 11 11 11 11 11
15 14 14 14 14 14 14 14 14 13 13 13 13 13 13 13 13 13 13 13 12 12 12 12 12 12 12 12 12 11 11 11 11 11 11 11 11 11 11 11 11 10 10
14 14 14 14 14 13 13 14 13 13 13 13 13 13 13 13 13 12 12 12 12 12 12 12 12 12 11 11 11 11 11 11 10 10 10 10 10 10 10 10 10 10 10
14 13 13 13 13 13 13 13 13 13 13 13 13 12 12 12 12 12 12 12 12 12 12 12 11 11 11 11 10 10 10 10 10 10 10 10 10 10 10 10 10 9 9
13 13 13 13 13 13 13 13 13 13 13 13 13 12 12 12 12 12 12 12 11 11 11 11 11 11 10 10 10 10 10 9 9 9 9 9 9 9 9 9 9 9 9
12 12 13 13 13 13 13 13 13 13 13 13 12 12 12 12 12 12 11 11 11 11 11 10 10 10 10 9 9 9 9 9 9 9 9 8 8 8 8 8 8 8 8
12 12 12 13 12 12 12 12 12 12 12 12 12 12 12 11 11 11 11 11 10 10 10 10 10 10 9 9 9 8 8 8 8 8 8 8 8 7 7 8 8 8 7
12 12 12 12 12 12 12 12 12 12 12 12 12 12 11 11 11 11 10 10 10 10 9 9 9 9 9 8 8 8 8 7 7 7 7 7 7 7 7 7 7 7 7
12 12 12 12 12 12 12 12 12 12 12 11 11 11 11 11 10 10 10 10 9 9 9 9 8 8 8 8 8 7 7 7 7 7 6 6 6 6 6 6 6 6 6
12 12 12 11 12 12 11 11 11 11 11 11 11 10 10 10 10 9 9 9 9 9 8 8 8 8 8 7 7 7 7 7 7 6 6 6 6 6 6 5 5 6 6
11 11 11 11 11 11 11 11 11 11 10 10 10 10 10 9 9 9 9 8 8 8 8 8 7 7 7 6 6 6 6 6 6 6 6 5 5 5 5 5 5 5 5
Wind_Speed
9 9 8 8 8 7 7 6 6 5 4 4 4 4 4 4 4 4 4 3 4 3 3 3 3 3 3 3 3 4 4 4 4 3 2 1 2 4 2 4 5 5 5
9 9 8 8 7 8 7 7 6 5 5 4 4 4 4 5 5 5 4 4 4 5 5 4 4 3 3 4 3 4 4 4 5 4 3 3 3 3 3 5 5 5 4
9 9 8 8 8 8 7 6 6 5 5 5 5 4 4 4 5 5 5 5 5 5 5 5 5 4 4 4 5 4 4 4 4 5 5 3 3 3 3 4 5 4 5
9 9 8 8 8 7 7 6 6 6 6 5 5 5 5 5 5 6 6 6 6 6 5 5 5 5 5 5 5 5 5 5 4 6 5 4 3 3 4 4 4 4 5
9 8 8 8 7 7 7 7 6 6 6 6 5 5 5 5 5 5 6 6 6 5 5 5 5 4 3 4 4 4 4 5 5 5 5 4 4 3 4 4 4 4 4
8 8 7 7 7 7 7 6 6 6 5 5 5 5 5 4 2 3 5 5 5 5 5 5 5 5 5 5 4 5 5 6 5 5 5 5 5 5 4 5 5 4 4
8 7 6 6 6 6 6 6 6 6 5 5 5 5 4 3 4 4 5 5 5 5 5 5 6 4 5 5 6 8 8 7 7 7 7 7 6 5 5 6 5 6 6
7 6 6 6 6 5 5 5 5 5 5 5 5 4 4 3 4 4 4 6 6 6 6 6 5 4 4 4 6 6 6 6 7 7 7 7 7 5 6 7 6 6 7
6 5 6 5 5 5 5 5 4 4 4 4 4 4 4 3 3 4 4 5 5 6 6 5 5 5 2 3 6 6 6 6 6 6 6 6 6 5 6 6 5 6 6
5 5 5 5 5 5 5 4 3 3 3 3 3 2 3 3 3 4 5 4 4 4 4 5 4 4 2 3 5 6 6 6 6 5 6 7 8 8 9 8 7 7 7
4 5 5 5 5 5 4 3 4 3 3 2 2 2 2 2 3 4 4 4 4 4 4 4 2 3 3 5 7 6 6 7 6 7 6 6 5 5 6 7 6 7 7
5 5 5 4 4 4 4 4 3 3 4 3 2 2 2 2 3 4 6 5 4 4 4 3 1 3 5 6 6 5 6 7 7 6 6 6 5 5 5 6 6 7 7
6 5 5 4 4 4 4 4 3 3 3 2 2 2 2 2 3 5 7 6 5 4 3 2 2 3 5 6 7 7 6 5 6 6 6 6 5 5 5 5 6 7 8
5 5 5 5 4 4 3 3 3 3 3 2 2 2 2 2 2 2 3 4 5 5 4 4 6 6 6 5 4 4 5 4 5 6 6 6 6 5 5 5 5 6 6
4 4 4 4 4 3 3 1 2 2 2 2 2 2 2 2 0 2 1 1 2 1 3 3 4 3 4 4 4 4 4 4 5 5 6 6 6 6 5 5 5 6 7
4 4 4 3 3 3 3 3 4 3 5 3 2 2 0 1 2 1 1 1 1 1 3 3 3 4 4 4 4 4 4 4 5 6 6 6 7 6 6 6 5 6 7
2 3 3 3 3 3 3 3 3 3 4 3 2 1 1 0 1 1 1 1 2 2 2 3 3 4 5 4 4 4 4 4 4 5 6 6 7 7 6 6 6 7 7
2 3 3 3 2 2 2 2 2 2 2 2 2 3 3 2 2 2 1 1 1 2 2 3 3 4 4 4 5 5 5 5 5 5 6 6 7 7 7 7 7 7 7
2 2 2 2 2 2 2 2 2 2 1 1 1 2 4 4 5 3 3 1 2 2 2 2 3 4 4 4 4 5 5 5 5 6 6 6 6 7 7 7 7 7 8
2 2 2 2 2 2 2 2 2 2 2 2 1 0 1 1 0 1 1 2 3 3 3 3 3 4 4 4 4 5 5 6 6 6 6 6 6 6 7 8 8 7 7
2 3 4 3 2 2 2 2 2 2 2 1 1 1 1 2 2 2 2 2 2 3 3 3 3 4 4 4 4 5 6 6 6 6 6 6 7 7 7 7 7 7 7
2 2 2 2 2 2 2 2 2 2 2 1 1 1 2 2 2 2 1 1 2 2 3 3 4 4 4 4 5 6 6 6 6 6 6 7 7 7 7 7 7 7 7
3 3 3 3 2 3 3 2 2 2 2 1 1 1 1 1 2 2 2 2 2 2 3 3 4 4 5 5 5 5 5 5 6 6 7 7 7 7 8 8 8 9 8
3 3 3 3 3 3 3 3 3 2 2 1 1 2 2 1 2 2 2 2 2 3 3 3 3 4 6 6 6 5 5 6 8 7 9 9 8 8 8 8 9 9 9
3 3 3 3 3 3 3 3 2 2 2 2 2 2 2 2 1 1 2 2 2 3 3 4 3 4 5 6 7 7 7 7 8 10 10 8 9 9 9 9 8 9 8
3 3 3 3 3 3 3 3 2 3 3 2 2 2 2 2 1 1 1 2 2 2 3 3 4 6 6 6 6 7 7 6 7 9 10 8 8 8 8 7 9 8 8
Wind_Direction
201 202 204 202 202 204 208 215 218 225 223 224 226 223 222 221 220 219 230 214 219 226 233 230 238 263 258 252 251 255 255 258 262 267 269 259 250 267 264 258 253 246 220
200 199 202 204 206 208 206 208 209 213 216 216 219 217 217 216 215 213 220 218 224 229 231 231 236 238 245 259 259 257 258 255 258 264 264 255 244 245 255 261 260 255 254
195 196 197 200 202 206 207 203 202 207 211 213 210 212 217 221 216 212 213 215 221 233 235 233 237 240 248 255 258 259 257 253 254 257 260 257 254 252 251 256 257 261 258
192 195 198 203 205 205 203 203 203 204 206 209 211 212 213 222 223 218 213 216 221 229 234 236 239 237 240 249 251 255 260 261 255 258 262 259 251 251 257 264 262 251 263
193 196 201 204 204 205 203 204 202 202 205 207 208 211 215 219 225 222 219 218 219 225 228 234 238 236 256 262 268 263 260 257 254 254 261 262 258 257 264 269 274 269 258
195 199 199 200 200 202 202 198 196 200 204 204 210 215 219 221 172 199 226 222 219 224 233 240 233 220 224 229 256 272 277 265 269 269 267 270 267 263 268 272 278 276 273
193 195 195 198 200 201 196 189 192 195 196 204 210 212 214 204 174 192 221 223 222 229 237 245 251 228 223 239 227 227 240 245 255 266 276 280 278 269 267 265 268 274 278
185 188 191 194 194 190 186 187 190 196 202 208 212 214 209 195 173 193 219 223 229 235 237 237 245 250 251 256 254 250 252 244 238 247 263 272 277 280 264 266 269 262 261
180 183 183 182 180 176 178 183 188 193 201 207 207 209 207 190 163 186 216 225 226 235 240 237 240 243 240 255 252 255 261 261 234 230 257 268 282 269 261 263 263 264 269
176 179 177 175 171 173 175 181 181 184 194 204 197 197 196 202 176 184 219 226 229 237 239 234 231 253 259 255 254 259 263 268 273 254 242 242 245 234 222 242 260 267 275
158 164 166 167 166 166 166 168 169 170 173 189 193 200 198 203 190 190 216 234 240 248 252 250 225 165 225 247 258 262 270 277 267 262 258 254 244 243 237 238 253 265 272
157 163 164 165 166 159 156 158 162 166 170 182 188 209 205 194 198 204 206 230 273 250 260 267 238 176 220 235 245 262 268 267 265 265 266 265 262 259 256 255 251 254 264
155 159 160 157 158 155 158 161 167 174 185 189 194 206 224 218 193 188 198 208 228 239 255 293 285 243 234 228 230 247 255 262 269 271 271 273 276 276 275 265 255 247 251
154 160 162 160 157 152 163 173 183 187 194 198 210 220 224 219 229 218 208 199 204 225 250 238 228 233 239 259 253 238 249 263 270 274 278 282 286 279 270 273 273 269 268
153 163 167 161 152 150 154 165 181 161 171 199 218 227 239 242 320 11 287 250 265 273 272 258 255 256 255 260 266 268 267 265 267 276 282 285 283 279 274 271 267 269 268
161 169 170 165 162 168 161 141 78 97 95 82 30 314 135 68 95 80 55 36 323 284 264 260 273 279 279 282 283 280 273 274 279 279 279 281 281 279 279 279 276 272 273
162 166 160 156 159 171 173 167 156 138 128 112 91 53 68 132 138 199 244 235 226 204 239 271 278 283 288 292 292 294 296 292 287 284 283 282 281 278 277 278 276 276 276
151 152 156 149 157 169 174 178 180 179 168 160 150 155 178 199 213 231 227 185 194 187 257 279 289 294 297 301 303 304 302 299 294 293 290 287 287 287 284 283 281 282 284
150 154 152 147 157 165 173 179 182 188 187 174 153 143 166 185 187 193 196 247 278 279 282 290 298 301 303 306 306 304 302 303 306 300 293 293 295 294 291 289 285 280 277
144 138 155 152 159 166 175 183 190 191 199 199 184 131 129 159 182 178 221 259 274 290 296 301 311 313 310 306 301 301 300 298 298 296 301 301 297 296 295 293 291 289 285
167 165 179 174 171 176 186 197 207 207 200 206 199 117 271 236 241 256 258 256 269 283 298 307 309 305 303 297 299 301 299 300 306 309 308 305 303 301 298 295 294 292 291
196 186 178 174 170 181 194 198 209 215 205 208 233 155 194 255 274 278 281 288 296 299 299 296 297 303 311 313 311 308 307 310 311 309 306 306 303 299 297 296 296 296 290
210 198 188 185 178 179 202 218 221 216 208 216 229 236 240 264 276 288 295 312 326 322 317 316 315 321 329 324 317 311 308 310 309 309 305 301 301 301 299 297 294 293 289
211 205 195 191 192 201 206 218 224 226 224 226 232 241 245 249 265 285 306 333 336 326 320 317 319 328 331 326 320 320 334 334 320 307 302 300 299 298 296 294 292 291 288
211 207 206 208 210 213 214 217 222 230 239 242 242 245 251 258 266 297 321 325 319 317 318 316 319 326 330 329 329 334 349 338 319 309 301 295 295 296 294 293 291 291 289
199 199 205 209 213 212 214 220 224 235 244 246 243 243 260 266 269 284 292 299 306 317 325 327 333 334 330 327 341 345 338 322 311 303 298 294 294 295 298 295 293 290 290
Height
1525 1527 1528 1529 1530 1531 1532 1533 1534 1534 1534 1534 1534 1534 1534 1534 1535 1535 1536 1536 1536 1536 1537 1537 1537 1537 1537 1537 1537 1537 1537 1537 1536 1535 1535 1534 1533 1532 1532 1531 1531 1529 1529
1522 1523 1525 1526 1528 1529 1529 1530 1530 1531 1531 1531 1531 1530 1531 1531 1532 1532 1532 1533 1534 1534 1535 1535 1535 1535 1534 1535 1535 1535 1534 1534 1534 1533 1532 1532 1530 1530 1529 1528 1528 1528 1526
1519 1520 1522 1523 1524 1525 1526 1527 1528 1528 1528 1528 1528 1528 1528 1529 1529 1529 1530 1530 1531 1531 1532 1532 1532 1532 1532 1532 1532 1532 1532 1532 1531 1531 1530 1529 1528 1528 1526 1526 1525 1524 1524
1516 1517 1518 1520 1521 1522 1523 1524 1525 1525 1525 1525 1526 1525 1525 1525 1526 1527 1527 1527 1528 1528 1529 1529 1529 1529 1529 1529 1529 1529 1529 1529 1529 1528 1528 1527 1526 1525 1524 1524 1523 1522 1521
1513 1514 1515 1517 1518 1519 1520 1521 1521 1522 1522 1522 1522 1523 1523 1523 1523 1524 1524 1525 1525 1526 1526 1526 1526 1526 1526 1526 1527 1527 1527 1526 1526 1526 1525 1524 1524 1523 1522 1521 1520 1519 1518
1509 1511 1512 1514 1515 1516 1517 1517 1518 1519 1519 1519 1519 1520 1520 1520 1520 1520 1521 1521 1522 1523 1523 1523 1523 1523 1523 1523 1523 1523 1523 1523 1523 1523 1523 1522 1521 1520 1519 1518 1518 1516 1515
1506 1508 1509 1511 1512 1513 1514 1514 1515 1515 1516 1516 1516 1516 1516 1517 1517 1517 1517 1518 1519 1520 1520 1520 1521 1521 1520 1520 1520 1520 1520 1519 1519 1519 1519 1519 1518 1517 1516 1515 1514 1513 1512
1502 1504 1505 1507 1508 1509 1510 1511 1512 1512 1513 1513 1514 1514 1514 1514 1514 1514 1514 1515 1516 1516 1517 1517 1517 1518 1518 1517 1517 1517 1517 1516 1516 1515 1514 1514 1515 1513 1512 1511 1510 1509 1508
1499 1500 1501 1502 1504 1505 1506 1507 1508 1509 1510 1511 1511 1511 1511 1511 1511 1511 1511 1512 1512 1513 1514 1514 1514 1514 1514 1514 1513 1513 1513 1513 1513 1512 1511 1510 1510 1509 1508 1508 1507 1507 1506
1496 1497 1498 1499 1500 1502 1503 1504 1506 1507 1507 1508 1508 1509 1509 1509 1509 1509 1509 1510 1510 1511 1511 1511 1510 1510 1510 1510 1510 1510 1509 1509 1509 1508 1507 1506 1506 1505 1504 1504 1503 1503 1502
1494 1495 1496 1497 1498 1500 1501 1502 1503 1504 1505 1505 1506 1506 1506 1506 1507 1507 1507 1507 1508 1508 1509 1509 1508 1507 1507 1507 1507 1506 1506 1506 1505 1505 1504 1503 1502 1501 1500 1499 1499 1499 1498
1492 1493 1494 1495 1497 1498 1499 1500 1501 1502 1502 1503 1503 1504 1504 1504 1505 1505 1505 1505 1506 1506 1506 1506 1505 1505 1504 1504 1503 1503 1502 1502 1502 1502 1501 1500 1499 1498 1497 1496 1494 1493 1493
1490 1491 1492 1493 1495 1496 1497 1498 1499 1499 1501 1501 1502 1502 1502 1502 1503 1502 1503 1503 1503 1503 1502 1502 1502 1501 1501 1501 1500 1500 1499 1499 1498 1498 1497 1496 1495 1494 1493 1492 1491 1489 1488
1488 1490 1491 1492 1493 1494 1495 1496 1497 1498 1498 1499 1499 1500 1500 1500 1501 1500 1500 1500 1500 1500 1500 1499 1499 1498 1498 1497 1497 1496 1496 1495 1494 1494 1493 1492 1491 1490 1489 1488 1487 1485 1484
1487 1488 1490 1490 1491 1492 1493 1494 1495 1495 1496 1497 1497 1498 1498 1498 1498 1498 1498 1498 1498 1498 1497 1497 1497 1496 1495 1495 1494 1493 1492 1491 1490 1490 1489 1488 1487 1486 1485 1484 1482 1481 1480
1486 1487 1488 1489 1490 1491 1491 1492 1492 1493 1493 1494 1495 1496 1496 1496 1495 1495 1495 1495 1495 1495 1495 1495 1494 1494 1493 1492 1491 1490 1489 1488 1487 1486 1485 1484 1483 1482 1480 1479 1478 1477 1475
1484 1485 1487 1488 1488 1489 1490 1491 1491 1492 1492 1492 1493 1493 1493 1493 1493 1493 1493 1493 1493 1492 1492 1492 1492 1491 1491 1490 1489 1487 1486 1485 1484 1483 1481 1480 1479 1478 1476 1475 1473 1472 1470
1483 1485 1485 1486 1487 1488 1489 1490 1491 1491 1491 1491 1491 1491 1491 1491 1491 1491 1491 1491 1491 1490 1490 1490 1490 1489 1488 1487 1486 1484 1483 1482 1480 1479 1477 1476 1475 1473 1472 1470 1469 1467 1466
1482 1484 1484 1485 1486 1487 1488 1489 1490 1490 1490 1490 1490 1490 1490 1490 1489 1489 1489 1489 1489 1489 1488 1488 1487 1486 1485 1484 1483 1481 1480 1479 1477 1475 1474 1472 1470 1469 1467 1465 1464 1462 1461
1481 1482 1483 1484 1485 1486 1487 1488 1488 1489 1489 1489 1488 1488 1488 1488 1488 1488 1488 1487 1487 1487 1486 1485 1484 1483 1482 1481 1479 1478 1477 1475 1473 1472 1470 1468 1466 1465 1463 1461 1459 1458 1456
1480 1481 1481 1482 1484 1484 1485 1486 1487 1488 1487 1487 1487 1487 1487 1487 1487 1487 1486 1485 1485 1484 1483 1482 1481 1480 1479 1478 1476 1475 1473 1472 1470 1468 1466 1464 1462 1460 1458 1457 1455 1453 1452
1479 1479 1480 1481 1482 1483 1484 1484 1485 1486 1486 1486 1486 1486 1485 1486 1485 1485 1484 1483 1482 1481 1480 1479 1478 1477 1476 1475 1473 1471 1470 1468 1466 1464 1462 1460 1458 1456 1454 1452 1450 1449 1447
1477 1478 1479 1479 1480 1480 1482 1483 1484 1484 1484 1484 1484 1484 1483 1483 1483 1482 1481 1480 1478 1478 1477 1476 1475 1474 1472 1471 1469 1467 1465 1464 1462 1460 1458 1456 1454 1452 1450 1448 1446 1444 1443
1475 1476 1477 1477 1478 1479 1480 1481 1482 1482 1482 1482 1481 1481 1481 1480 1480 1479 1478 1477 1476 1474 1473 1472 1471 1469 1467 1466 1465 1463 1461 1459 1457 1455 1453 1451 1449 1447 1446 1444 1442 1440 1439
1473 1474 1475 1475 1475 1476 1477 1478 1479 1479 1479 1479 1479 1478 1478 1477 1476 1475 1474 1473 1472 1471 1469 1468 1467 1465 1463 1461 1459 1458 1456 1454 1452 1450 1448 1446 1444 1442 1441 1439 1437 1435 1434
1471 1472 1472 1473 1474 1474 1475 1476 1476 1476 1476 1476 1475 1475 1475 1474 1473 1472 1471 1470 1468 1467 1465 1464 1462 1460 1458 1456 1454 1452 1450 1448 1446 1445 1443 1441 1439 1438 1436 1434 1432 1430 1429